www.pogodaiklimat.ru

Погода и климат >> Архив погоды >> Франция >> Бордо


АРХИВ ПОГОДЫ в Бордо

Время (UTC), дата Ветер
(напр.,м/с)
 
Видим.   Явления Облачность Т
(С)
Тd
(С)
f
(%)
Тe
(С)
Тes
(С)
Комфортность P
(гПа)
Po
(гПа)
Тmin
(С)
Tmax
(С)
R
(мм)
R24
(мм)
S
(см)
07 10.06 З 1 40 км н/о +13.5 +9.9 79 +14 +14 прохладно 1019.8 1014.0
08 10.06 СЗ 2 35 км н/о +16.2 +9.8 66 +17 +17 по сезону 1019.5 1013.8
09 10.06 З 6
{8}
45 км 9/9 1000 м
[]
+16.4 +8.4 59 +15 +16 прохладно 1019.1 1013.4 0
10 10.06 З 1 28 км 9/1 1000 м
[]
+17.7 +8.5 55 +19 +28 прохладно 1018.9 1013.2
11 10.06 З 3 35 км 9/3 1000 м
[]
+18.1 +7.8 51 +18 +24 прохладно 1018.7 1013.0
12 10.06 З 6
{9}
35 км 9/9 1000 м
[]
+18.4 +7.5 49 +18 +19 прохладно 1018.5 1012.8 0
13 10.06 СЗ 3 25 км н/о +18.3 +6.5 46 +19 +19 прохладно 1018.1 1012.4
14 10.06 СЗ 4 29 км 9/1 1000 м
[]
+17.6 +7.3 51 +17 +23 холодно 1018.1 1012.4
15 10.06 З 6
{9}
45 км 9/0
[]
+16.4 +8.9 61 +15 +18 холодно 1017.7 1012.0 0
16 10.06 З 3 40 км 9/5 600 м
[]
+15.9 +9.6 66 +15 +17 очень
холодно
1017.6 1011.9
17 10.06 З 3 18 км 9/1 600 м
[]
+15.5 +8.7 64 +15 +17 холодно 1017.3 1011.6
18 10.06 З 5
{9}
45 км 9/9 600 м
[]
+15.3 +8.8 65 +14 +14 холодно 1017.2 1011.5 +12.1 +19.3 0
19 10.06 З 2 55 км 10/1 600 м
[]
+14.8 +8.7 67 +15 +15 прохладно 1017.1 1011.4
20 10.06 З 1 50 км 10/4 600 м
[]
+14.3 +9.1 71 +15 +15 прохладно 1016.9 1011.1
21 10.06 З 2
{4}
40 км 10/10 600 м
[]
+13.6 +9.6 77 +13 +13 прохладно 1016.8 1011.0 0
22 10.06 З 1 35 км 10/1 600 м
[]
+13.2 +9.6 79 +13 +13 по сезону 1016.3 1010.5
23 10.06 З 2 30 км слаб. дождь 10/1 600 м
[]
+12.1 +10.2 88 +11 +11 прохладно 1016.0 1010.2 0.6
00 11.06 ЮЗ 2
{3}
13 км слаб. дождь 10/10 300 м
[]
+11.8 +10.2 90 +11 +11 прохладно 1015.5 1009.7 0.8 0
01 11.06 ЮЗ 1 12 км слаб. дождь 10/10 1500 м
[]
+11.3 +9.9 91 +11 +11 прохладно 1014.7 1008.9 0.4
02 11.06 Ю 1 6000 м слаб. дождь 10/10 1000 м
[]
+11.2 +10.3 94 +11 +11 прохладно 1014.3 1008.5 1
03 11.06 Ю 2
{4}
50 км 10/10 600 м
[]
+11.0 +10.2 95 +10 +10 прохладно 1013.7 1007.9 2 0
04 11.06 Ю 2 10 км слаб. дождь 10/6 200 м
[]
+11.0 +10.4 96 +10 +10 прохладно 1013.5 1007.7 0.2
05 11.06 Ю 2 30 км н/о +10.7 +9.9 95 +10 +10 прохладно 1013.3 1007.5 0.0
06 11.06 Ю 3
{4}
19 км н/о +11.3 +10.5 95 +9 +9 холодно 1013.3 1007.5 +10.5 +15.3 0.4 0
07 11.06 ЮЗ 2 35 км 9/9 200 м
[]
+12.1 +10.8 92 +11 +12 очень
холодно
1013.4 1007.6 0.6
08 11.06 ЮЗ 2 23 км н/о +13.8 +10.6 81 +13 +13 холодно 1012.9 1007.2
09 11.06 З 5
{9}
10 км слаб. дождь 10/10 300 м
[]
+12.2 +9.2 82 +10 +10 очень
холодно
1013.2 1007.4 1 0
10 11.06 З 2 50 км н/о +13.5 +10.3 81 +13 +13 очень
холодно
1013.2 1007.5 0.4
11 11.06 СЗ 2 19 км 8/5 600 м
[]
+14.4 +9.4 72 +14 +20 очень
холодно
1013.2 1007.5 0.0
12 11.06 З 6
{11}
50 км 9/9 1000 м
[]
+15.9 +7.9 59 +15 +15 очень
холодно
1013.1 1007.4 0.4 0
13 11.06 З 4 40 км 9/4 1000 м
[]
+16.4 +9.3 63 +16 +21 очень
холодно
1013.0 1007.3
14 11.06 З 4 30 км 9/4 1000 м
[]
+15.9 +7.6 58 +15 +19 очень
холодно
1013.0 1007.3
15 11.06 З 8
{13}
26 км 9/9 300 м
[]
+16.2 +7.9 58 +15 +15 очень
холодно
1013.0 1007.3 0
16 11.06 З 2 9000 м 9/9 1000 м
[]
+13.4 +10.7 84 +13 +13 очень
холодно
1013.0 1007.3 0.8
17 11.06 ЮЗ 3 18 км 9/6 300 м
[]
+13.4 +11.1 86 +12 +13 очень
холодно
1012.9 1007.2 0.2
18 11.06 З 6
{11}
18 км дождь 10/10 300 м
[]
+13.0 +10.9 87 +10 +10 очень
холодно
1013.0 1007.2 +11.3 +17.3 1 0
19 11.06 З 3 25 км слаб. морось 10/5 300 м
[]
+12.7 +10.6 87 +11 +11 очень
холодно
1012.8 1007.0 0.0
20 11.06 ЮЗ 3 45 км 9/3 600 м
[]
+12.6 +9.4 81 +11 +11 очень
холодно
1012.7 1006.9 0.0
21 11.06 ЮЗ 5
{8}
28 км 9/9 600 м
[]
+12.1 +10.2 88 +10 +10 очень
холодно
1012.6 1006.8 0.0 0
22 11.06 ЮЗ 2 19 км 10/9 300 м
[]
+11.8 +10.5 92 +11 +11 прохладно 1012.2 1006.4 0.2
23 11.06 ЮЗ 3 1700 м сильн. дождь 10/9 300 м
[]
+11.7 +10.6 93 +10 +10 прохладно 1011.8 1006.0 2
00 12.06 З 5
{10}
8000 м слаб. дождь 10/10 300 м
[]
+11.5 +10.6 94 +9 +9 холодно 1011.2 1005.4 8 0
01 12.06 ЮЗ 2 17 км морось 10/8 600 м
[]
+11.3 +10.2 93 +10 +10 прохладно 1010.7 1004.9 0.2
02 12.06 ЮЗ 2 1900 м дождь 10/8 200 м
[]
+11.3 +10.5 95 +10 +10 прохладно 1010.1 1004.3 2
03 12.06 ЮЗ 4
{8}
19 км 9/9 300 м
[]
+11.4 +10.6 95 +9 +9 холодно 1009.8 1004.0 3 0
04 12.06 Ю 2 15 км 10/9 300 м
[]
+11.6 +10.8 95 +10 +10 прохладно 1009.7 1003.9 0.0
05 12.06 Ю 3 1600 м дождь 10/10 300 м
[]
+11.8 +11.0 95 +10 +10 прохладно 1009.6 1003.8 4
06 12.06 ЮЗ 6
{12}
14 км 9/9 300 м
[]
+12.1 +11.3 95 +9 +9 холодно 1009.8 1004.0 +11.2 +13.1 5 0
07 12.06 ЮЗ 3 14 км 10/6 300 м
[]
+12.7 +11.6 93 +11 +12 очень
холодно
1010.0 1004.3 0.4
08 12.06 ЮЗ 4 17 км 10/8 300 м
[]
+13.6 +12.0 90 +12 +13 холодно 1010.5 1004.8 0.2
09 12.06 З 7
{11}
4500 м слаб. дождь 9/9 300 м
[]
+13.8 +11.8 88 +11 +12 очень
холодно
1011.2 1005.5 2 0
10 12.06 ЮЗ 3 3000 м дымка н/о +14.8 +11.9 83 +14 +14 очень
холодно
1012.0 1006.3 0.4
11 12.06 З 3 9000 м н/о +16.5 +12.3 76 +16 +16 очень
холодно
1012.3 1006.6 0.4
12 12.06 ЮЗ 7
{11}
10 км н/о +17.0 +11.9 72 +16 +16 холодно 1012.7 1007.0 1 0
13 12.06 З 5 9000 м 9/4 600 м
[]
+15.6 +10.6 72 +15 +18 очень
холодно
1013.3 1007.6 0.4
14 12.06 З 3 19 км 9/6 600 м
[]
+15.9 +12.1 78 +15 +19 очень
холодно
1013.5 1007.8 0.4
15 12.06 З 8
{12}
22 км 9/9 600 м
[]
+17.2 +11.2 68 +16 +16 холодно 1013.9 1008.2 0.8 0
16 12.06 З 4 24 км н/о +16.9 +10.0 64 +17 +17 очень
холодно
1014.1 1008.4
17 12.06 З 3 40 км н/о +17.1 +9.0 59 +17 +17 холодно 1013.9 1008.2
18 12.06 ЮЗ 5
{8}
19 км н/о +16.8 +9.7 63 +16 +16 холодно 1014.1 1008.4 +11.9 +17.9 4 0
19 12.06 ЮЗ 2 45 км н/о +15.4 +10.2 71 +15 +15 прохладно 1014.1 1008.4
20 12.06 ЮЗ 2 55 км 8/8
[]
+14.0 +10.2 78 +14 +14 холодно 1014.4 1008.7
21 12.06 Ю 2
{4}
45 км н/о +12.7 +10.1 84 +12 +12 холодно 1015.0 1009.2 0
22 12.06 Ю 2 30 км н/о +11.6 +10.2 91 +11 +11 прохладно 1015.0 1009.2
23 12.06 Ю 2 26 км н/о +11.4 +10.1 92 +11 +11 прохладно 1014.9 1009.1
00 13.06 Ю 2
{4}
17 км н/о +10.9 +10.0 94 +9 +9 холодно 1014.6 1008.8 0
01 13.06 Ю 1 7000 м 10/10
[]
+10.7 +9.9 95 +11 +11 прохладно 1013.9 1008.1
02 13.06 ЮВ 2 13 км слаб. дождь 10/10 1500 м
[]
+11.2 +10.4 95 +10 +10 прохладно 1013.7 1007.9 0.2
03 13.06 ЮВ 2
{3}
22 км 10/10 1500 м
[]
+11.4 +10.6 95 +10 +10 холодно 1013.3 1007.5 0.2 0
04 13.06 Ю 1 23 км 10/10 1000 м
[]
+11.6 +10.7 94 +12 +12 по сезону 1013.5 1007.7
05 13.06 штиль 0 13 км 10/1 1000 м
[]
+11.9 +11.0 94 +11 +11 прохладно 1013.3 1007.5
06 13.06 В 3
{3}
19 км 9/0
[]
+12.5 +11.6 94 +11 +12 прохладно 1013.4 1007.6 +10.6 +16.8 0.2 0
07 13.06 ЮВ 1
{3}
19 км 9/0
[]
+13.7 +11.7 88 +14 +17 холодно 1013.4 1007.7
08 13.06 СВ 1 35 км 9/1 300 м
[]
+17.1 +11.8 71 +19 +24 по сезону 1013.4 1007.7
09 13.06 С 2
{4}
50 км 9/0 2000 м
[]
+17.1 +12.0 72 +17 +24 по сезону 1013.4 1007.7 0
10 13.06 СВ 1 19 км н/о +19.3 +11.3 60 +21 +21 комфорт 1012.7 1007.1
11 13.06 СВ 1 22 км н/о +20.0 +11.5 58 +23 +23 комфорт 1012.3 1006.7
12 13.06 СВ 2
{5}
19 км н/о +21.3 +10.7 51 +23 +23 комфорт 1012.3 1006.7 0
13 13.06 С 2 45 км 8/5 1000 м
[]
+21.8 +10.9 50 +24 +31 комфорт 1011.8 1006.2
14 13.06 ЮВ 1 50 км 8/8 1500 м
[]
+22.5 +10.6 47 +24 +28 комфорт 1011.7 1006.1
15 13.06 СВ 1
{8}
45 км н/о +23.6 +11.3 46 +25 +25 комфорт 1010.9 1005.4 0
16 13.06 С 1 25 км н/о +23.8 +11.1 45 +25 +25 комфорт 1010.4 1004.9
17 13.06 СВ 2 6000 м н/о +23.4 +11.8 48 +26 +26 жарко 1010.0 1004.5
18 13.06 СВ 5
{8}
45 км н/о +22.1 +12.6 55 +25 +25 комфорт 1009.6 1004.0 +12.6 +24.1 0
19 13.06 С 3 50 км 9/9 1500 м
[]
+19.3 +13.0 67 +21 +21 комфорт 1010.6 1005.0
20 13.06 С 3 18 км 9/1 300 м
[]
+16.6 +11.5 72 +16 +16 прохладно 1011.3 1005.6
21 13.06 З 6
{10}
60 км 10/10 300 м
[]
+15.0 +11.9 82 +13 +13 холодно 1012.7 1007.0 0
22 13.06 З 3 55 км 10/4 300 м
[]
+14.5 +12.5 88 +14 +14 по сезону 1013.5 1007.8 0.4
23 13.06 С 3 35 км 10/4 300 м
[]
+13.2 +12.1 93 +12 +12 прохладно 1013.3 1007.6 3
00 14.06 З 4
{10}
1300 м сильн. дождь 10/10 100 м
[]
+13.0 +12.4 96 +11 +11 прохладно 1014.4 1008.6 7 0
01 14.06 СЗ 2 30 км 10/10 100 м
[]
+12.9 +12.4 97 +12 +12 по сезону 1013.5 1007.7 2
02 14.06 СЗ 1 40 км 10/10 200 м
[]
+12.4 +11.8 96 +12 +12 прохладно 1013.5 1007.7
03 14.06 СЗ 1
{3}
40 км 10/10 200 м
[]
+12.5 +11.9 96 +12 +12 прохладно 1013.9 1008.1 2 0
04 14.06 З 1 30 км 10/9 300 м
[]
+12.4 +11.6 95 +13 +13 по сезону 1013.9 1008.1
05 14.06 СЗ 1 15 км 9/5 300 м
[]
+12.7 +12.1 96 +13 +14 по сезону 1014.0 1008.2
06 14.06 З 1
{2}
45 км 9/9 300 м
[]
+13.5 +12.1 91 +14 +14 по сезону 1014.0 1008.3 +12.1 +22.1 9 0
07 14.06 С 2 30 км н/о +15.4 +12.7 84 +16 +16 прохладно 1014.0 1008.3
08 14.06 С 3 25 км 8/8 300 м
[]
+16.4 +12.9 80 +16 +18 прохладно 1013.4 1007.7
09 14.06 С 3
{7}
20 км н/о +18.0 +12.4 70 +18 +18 по сезону 1014.0 1008.3 0
10 14.06 СВ 2 40 км 9/9 600 м
[]
+18.3 +12.1 67 +19 +21 холодно 1014.0 1008.3
11 14.06 СВ 2 40 км 9/9 600 м
[]
+18.8 +12.5 67 +20 +22 прохладно 1013.1 1007.5
12 14.06 С 3
{7}
35 км 9/9 600 м
[]
+19.3 +12.6 65 +21 +22 комфорт 1012.9 1007.3 0
13 14.06 С 2 45 км 10/9 600 м
[]
+19.9 +12.9 64 +22 +23 комфорт 1012.7 1007.1
14 14.06 СЗ 2 40 км 9/9 600 м
[]
+20.4 +13.1 63 +23 +25 комфорт 1012.3 1006.7
15 14.06 СЗ 5
{7}
45 км 9/9 600 м
[]
+20.5 +13.9 66 +23 +24 комфорт 1012.3 1006.7 0.2 0
16 14.06 СЗ 3 40 км 9/9 600 м
[]
+20.1 +13.5 66 +23 +23 комфорт 1012.2 1006.6
17 14.06 СЗ 3 30 км 10/10 600 м
[]
+19.2 +12.7 66 +21 +21 комфорт 1012.6 1007.0
18 14.06 СЗ 4
{6}
50 км 10/10 1000 м
[]
+18.2 +12.0 67 +18 +18 прохладно 1013.4 1007.7 +13.5 +20.8 0.2 0
19 14.06 СЗ 2 60 км 10/3 1000 м
[]
+17.5 +11.5 68 +18 +18 по сезону 1014.0 1008.3
20 14.06 З 2 55 км 10/10 1000 м
[]
+16.6 +11.3 71 +17 +17 по сезону 1014.8 1009.1
21 14.06 СЗ 4
{6}
60 км 10/10 1000 м
[]
+15.9 +11.5 75 +15 +15 прохладно 1015.6 1009.9 0
22 14.06 СЗ 1 55 км 10/10 1000 м
[]
+15.5 +11.5 77 +16 +16 тепло 1016.3 1010.6
23 14.06 З 2 55 км 10/10 1000 м
[]
+15.3 +11.7 79 +15 +15 по сезону 1016.8 1011.1
00 15.06 СЗ 2
{3}
55 км 10/10 1000 м
[]
+15.0 +11.8 81 +15 +15 по сезону 1017.1 1011.4 0
01 15.06 СЗ 1 55 км 10/9 1000 м
[]
+14.8 +11.8 82 +15 +15 по сезону 1017.0 1011.3
02 15.06 З 1 55 км 10/1 1000 м
[]
+14.6 +11.6 82 +15 +15 по сезону 1017.4 1011.7
03 15.06 С 2
{3}
35 км слаб. дождь 10/0 2000 м
[]
+14.4 +11.5 83 +14 +14 по сезону 1017.1 1011.4 0.0 0
04 15.06 штиль 0 35 км 10/10 600 м
[]
+14.0 +11.9 87 +14 +14 по сезону 1017.9 1012.1 0.0
05 15.06 З 1 35 км 10/10 1500 м
[]
+14.0 +11.9 87 +14 +14 по сезону 1018.5 1012.7
06 15.06 З 2
{3}
50 км 10/10 1000 м
[]
+14.4 +11.9 85 +14 +14 по сезону 1018.8 1013.0 +13.9 +18.2 0.0 0
07 15.06 ЮЗ 1 45 км 10/1 600 м
[]
+15.0 +11.9 82 +16 +19 прохладно 1019.1 1013.4
08 15.06 З 1 45 км 9/9 300 м
[]
+17.0 +11.5 70 +19 +20 по сезону 1019.7 1014.0
09 15.06 З 4
{8}
40 км н/о +18.8 +11.1 61 +20 +20 тепло 1020.0 1014.3 0
10 15.06 З 2 22 км н/о +18.9 +9.9 56 +20 +20 холодно 1020.3 1014.6
11 15.06 З 3 35 км н/о +19.2 +8.8 51 +20 +20 холодно 1020.5 1014.8
12 15.06 З 5
{9}
50 км н/о +20.5 +9.4 49 +22 +22 комфорт 1020.8 1015.1 0
13 15.06 З 3 29 км 8/5 1000 м
[]
+21.6 +10.4 49 +23 +29 комфорт 1020.8 1015.2
14 15.06 З 3 30 км н/о +20.0 +9.8 52 +22 +22 комфорт 1021.1 1015.4
15 15.06 З 4
{8}
27 км 8/8 1000 м
[]
+20.3 +9.5 50 +22 +23 комфорт 1021.3 1015.6 0
16 15.06 СЗ 3 30 км н/о +20.4 +10.5 53 +22 +22 комфорт 1021.5 1015.8
17 15.06 З 3 25 км н/о +20.1 +11.3 57 +22 +22 комфорт 1021.7 1016.0
18 15.06 З 4
{8}
40 км н/о +19.5 +11.0 58 +21 +21 комфорт 1022.0 1016.3 +14.3 +21.6 0
19 15.06 З 2 35 км н/о +18.4 +10.7 61 +20 +20 по сезону 1022.2 1016.5
20 15.06 З 2 45 км н/о +16.5 +10.8 69 +17 +17 прохладно 1022.6 1016.9
21 15.06 З 3
{4}
40 км н/о +15.1 +11.1 77 +15 +15 прохладно 1023.5 1017.7 0
22 15.06 З 1 16 км н/о +14.2 +11.5 84 +15 +15 по сезону 1023.6 1017.8
23 15.06 З 1 8000 м н/о +13.3 +11.0 86 +14 +14 по сезону 1023.6 1017.8
00 16.06 З 1
{2}
1500 м дымка н/о +12.2 +10.6 90 +12 +12 прохладно 1023.4 1017.6 0
01 16.06 СЗ 1 300 м туман н/о +11.8 +10.4 91 +12 +12 по сезону 1022.8 1017.0
02 16.06 ЮЗ 1 2500 м дымка н/о +11.0 +9.9 93 +11 +11 прохладно 1022.7 1016.8
03 16.06 Ю 1
{2}
1300 м дымка н/о +10.3 +9.4 94 +10 +10 холодно 1022.7 1016.8 0
04 16.06 ЮВ 1 500 м туман н/о +10.0 +9.4 96 +10 +10 прохладно 1022.7 1016.8
05 16.06 ЮВ 1 1200 м дымка н/о +11.0 +10.5 97 +11 +11 прохладно 1023.0 1017.1
06 16.06 ЮВ 3
{3}
16 км н/о +13.5 +11.9 90 +12 +12 прохладно 1023.2 1017.4 +9.8 +19.5 0
07 16.06 В 2 22 км н/о +15.5 +12.6 83 +16 +16 прохладно 1023.5 1017.7
08 16.06 В 1 22 км н/о +17.2 +11.9 71 +18 +18 по сезону 1023.2 1017.5
09 16.06 В 2
{4}
45 км н/о +19.3 +11.6 61 +21 +21 комфорт 1023.1 1017.4 0
10 16.06 В 2 35 км н/о +20.7 +9.9 50 +23 +23 комфорт 1022.8 1017.1
11 16.06 В 1 40 км н/о +21.4 +9.3 46 +23 +23 комфорт 1022.2 1016.6
12 16.06 Ю 2
{6}
17 км н/о +22.2 +9.7 45 +24 +24 комфорт 1021.5 1015.9 0
13 16.06 В 2 35 км н/о +23.4 +10.1 43 +25 +25 комфорт 1020.9 1015.3
14 16.06 СВ 2 45 км н/о +23.7 +11.1 45 +25 +25 комфорт 1020.5 1014.9
15 16.06 С 5
{9}
20 км н/о +23.5 +10.5 44 +25 +25 комфорт 1020.0 1014.4 0
16 16.06 СВ 2 25 км н/о +24.1 +11.4 45 +26 +26 жарко 1019.5 1013.9
17 16.06 СВ 2 28 км н/о +24.1 +11.8 46 +26 +26 жарко 1019.2 1013.6
18 16.06 СВ 4
{7}
23 км н/о +23.7 +12.0 48 +25 +25 комфорт 1019.0 1013.4 +13.6 +24.3 0
19 16.06 СВ 3 24 км н/о +23.0 +11.4 48 +25 +25 комфорт 1018.8 1013.2
20 16.06 СВ 2 55 км н/о +21.4 +12.5 57 +24 +24 комфорт 1018.8 1013.2
21 16.06 СВ 2
{4}
40 км н/о +19.9 +12.6 63 +22 +22 комфорт 1019.2 1013.6 0
22 16.06 СЗ 1 35 км н/о +17.7 +12.4 71 +19 +19 тепло 1019.4 1013.7
23 16.06 С 1 30 км н/о +16.2 +12.2 77 +18 +18 тепло 1019.3 1013.6
00 17.06 С 2
{2}
18 км н/о +15.7 +12.4 81 +16 +16 по сезону 1019.1 1013.4 0
01 17.06 С 1 13 км н/о +15.2 +12.5 84 +16 +16 тепло 1018.8 1013.1
02 17.06 С 1 17 км н/о +14.8 +12.3 85 +15 +15 по сезону 1018.4 1012.7
03 17.06 С 1
{2}
6000 м н/о +14.2 +12.2 88 +14 +14 по сезону 1018.2 1012.4 0
04 17.06 С 1 25 км н/о +14.3 +12.2 87 +15 +15 по сезону 1018.1 1012.3
05 17.06 СВ 1 30 км н/о +14.9 +12.4 85 +15 +15 по сезону 1018.0 1012.3
06 17.06 СВ 3
{4}
28 км н/о +16.9 +12.6 76 +17 +17 тепло 1017.9 1012.2 +14.2 +23.8 0
07 17.06 В 1 30 км н/о +19.2 +13.6 70 +22 +22 комфорт 1017.9 1012.2

 

Местоположение метеостанции Бордо (Франция): широта 44.83 долгота -0.68 высота над уровнем моря 61 м.

В архиве по умолчанию представлена погода в Бордо за последнюю неделю. Архивные данные за месяц целиком и за предыдущие месяцы, начиная с января 2011 года, Вы можете получить, выбрав интересующий диапазон дат из раскрывающегося списка и нажав кнопку "Ввод!".


*Определитесь, кто Вы:
робот инопланетянин человек

Внимание! Время в таблицах - всемирное. Для получения местного времени необходимо прибавить поправку, которая равна 1 ч.

Смотрите также архив погоды в соседних городах и на ближайших метеорологических станциях:

Погода в Казо (Франция) (49 км)
Погода в Леж-Кап-Ферре (Франция) (50 км)
Погода в Бискарроссе (Франция) (63 км)
Погода в Бержераке (Франция) (95 км)
Погода в Коньяке (Франция) (98 км)
Погода в Мон-де-Марсане (Франция) (102 км)
Погода в Ажане (Франция) (125 км)
Погода в Пегирё (Франция) (125 км)
Погода в Даксе (Франция) (132 км)
Погода в Шассироне (Франция) (147 км)

Пояснения к столбцам:

Ветер - указаны скорость ветра в м/с - средняя за 10 мин, порывы в срок и между сроками (в фигурных скобках) и направление, откуда дует ветер: С - северный, СВ - северо-восточный, В - восточный, ЮВ - юго-восточный, Ю - южный, ЮЗ - юго-западный, З - западный, СЗ - северо-западный.
Видимость - горизонтальная дальность видимости в метрах или километрах. При видимости от 1 до 10 км при отсутствии осадков обычно наблюдается дымка, при ухудшении видимости до 1 км и менее - туман. В сухую погоду видимость может ухудшаться дымом, пылью или мглою.
Явления - указаны атмосферные явления, наблюдавшиеся в срок или в последний час перед сроком; фигурными скобками обозначены явления, наблюдавшиеся между сроками (за 1-3 часа до срока); квадратными скобками обозначены град или гололедные отложения с указанием их диаметра в мм.
Облачность - указаны через наклонную черту общая и нижняя облачность в баллах и высота нижней границы облаков в метрах; квадратными скобками обозначены формы облаков: Ci - перистые, Cs - перисто-слоистые, Cc - перисто-кучевые, Ac - высококучевые, As - высокослоистые, Sc - слоисто-кучевые, Ns - слоисто-дождевые, Cu - кучевые, Cb - кучево-дождевые. Подробнее классификацию облаков см. в Атласе облаков (PDF).
T - Температура воздуха - температура, измеренная на высоте 2 м над землей.
Td - Температура точки росы - температура, при понижении до которой содержащийся в воздухе водяной пар достигнет насыщения.
f - Относительная влажность воздуха - влажноcть воздуха, измеренная на высоте 2 м над землей.
Te - Эффективная температура - температура, которую ощущает одетый по сезону человек в тени. Характеристика душности погоды. При расчете учитывается влияние влажности воздуха и скорости ветра на теплоощущения человека.
Tes - Эффективная температура на солнце - температура, которую ощущает человек, с поправкой на солнечный нагрев. Характеристика знойности погоды. Зависит от высоты солнца над горизонтом, облачности и скорости ветра. Ночью, в пасмурную погоду, а также при ветре 12 м/с и более поправка равна нулю.
P - Атмосферное давление - приведенное к уровню моря атмосферное давление.
Po - Атмосферное давление - измеренное на уровне метеостанции атмосферное давление.
Tmin - Минимальная температура - минимум температуры воздуха на высоте 2 м над землей.
Tmax - Максимальная температура - максимум температуры воздуха на высоте 2 м над землей.
R - Количество осадков - Количество выпавших осадков за период времени, мм. При наведении курсора мыши на число - период времени, за который выпало указанное количество осадков.
R24 - Количество осадков - Количество выпавших осадков за 24 часа, мм.
S - Снежный покров - Высота снежного покрова, см. При наведении курсора мыши на число - состояние снежного покрова и степень покрытия местности в баллах.